This is the latest recevied weather packets stored in our database for station/object W2EH. If no packets are shown the sender has not sent any weather packets the latest 10 day(s).
| Time | Temp. | Humidity | Pressure | Rain* | Wind** | Luminosity | Snow |
|---|---|---|---|---|---|---|---|
| 1777998838 | 23.33° C | 83% | 1007.5 hPa | 0 mm | - | 138 W/m² | - |
| 1777998536 | 23.33° C | 83% | 1007.5 hPa | 0 mm | - | 184 W/m² | - |
| 1777998231 | 23.33° C | 83% | 1007.7 hPa | 0 mm | - | 135 W/m² | - |
| 1777997929 | 23.33° C | 84% | 1007.5 hPa | 0 mm | - | 141 W/m² | - |
| 1777997626 | 23.33° C | 84% | 1007.6 hPa | 0 mm | - | 88 W/m² | - |
| 1777997323 | 22.78° C | 84% | 1007.6 hPa | 0 mm | - | 135 W/m² | - |
| 1777997021 | 22.78° C | 85% | 1007.3 hPa | 0 mm | - | 103 W/m² | - |
| 1777996717 | 22.78° C | 84% | 1007.4 hPa | 0 mm | - | 139 W/m² | - |
| 1777996413 | 22.78° C | 85% | 1007.7 hPa | 0 mm | - | 108 W/m² | - |
| 1777996110 | 22.78° C | 85% | 1007.3 hPa | 0 mm | - | 127 W/m² | - |
| 1777995806 | 22.78° C | 85% | 1007.4 hPa | 0 mm | - | 97 W/m² | - |
| 1777995502 | 22.78° C | 85% | 1007.4 hPa | 0 mm | - | 123 W/m² | - |
| 1777995200 | 22.78° C | 85% | 1007.5 hPa | 0 mm | - | 100 W/m² | - |
| 1777994896 | 22.78° C | 86% | 1007.4 hPa | 0 mm | - | 85 W/m² | - |
| 1777994594 | 22.78° C | 85% | 1007.4 hPa | 0 mm | - | 71 W/m² | - |
| 1777994294 | 22.78° C | 86% | 1007.6 hPa | 0 mm | - | 78 W/m² | - |
| 1777993991 | 22.78° C | 86% | 1007.7 hPa | 0 mm | - | 66 W/m² | - |
| 1777993688 | 22.22° C | 86% | 1007.5 hPa | 0 mm | - | 80 W/m² | - |
| 1777993385 | 22.22° C | 87% | 1007.2 hPa | 0 mm | - | 83 W/m² | - |
| 1777993085 | 22.22° C | 86% | 1007.3 hPa | 0 mm | - | 61 W/m² | - |
| 1777992784 | 22.22° C | 86% | 1007.3 hPa | 0 mm | - | 50 W/m² | - |
| 1777992481 | 22.22° C | 86% | 1007.3 hPa | 0 mm | - | 50 W/m² | - |
| 1777992179 | 22.22° C | 86% | 1007.4 hPa | 0 mm | - | 58 W/m² | - |
| 1777991876 | 22.22° C | 86% | 1007.3 hPa | 0 mm | - | 51 W/m² | - |
| 1777991574 | 22.22° C | 86% | 1007.2 hPa | 0 mm | - | 51 W/m² | - |
* Rain latest hour (hover to see other rain measurements)
** Current wind speed in m/s (hover to see current wind gust speed)